Weather History for KSHV - December, 2012

Change the Weather History Date:

Wednesday, December 5, 2012

  Actual Average Record
Temperature  
Mean Temperature 60 °F 50 °F  
Max Temperature 64 °F 61 °F 82 °F (1956)
Min Temperature 55 °F 39 °F 20 °F (1886)
Degree Days  
Heating Degree Days 5 15  
Month to date heating degree days 5 73  
Since 1 July heating degree days 365 444  
Cooling Degree Days 0 0  
Month to date cooling degree days 16 0  
Year to date cooling degree days 2950 2474  
Growing Degree Days 10 (Base 50)    
Moisture  
Dew Point 54 °F    
Average Humidity 86    
Maximum Humidity 100    
Minimum Humidity 72    
Precipitation  
Precipitation 0.01 in 0.16 in 3.17 in (1944)
Month to date precipitation 0.01 0.81  
Year to date precipitation 46.03 47.45  
Snow  
Snow 0.00 in - - ()
Month to date snowfall 0.0  
Since 1 July snowfall 0.0  
Snow Depth 0.00 in    
Sea Level Pressure  
Sea Level Pressure 30.17 in    
Wind  
Wind Speed 8 mph (NE)    
Max Wind Speed 14 mph    
Max Gust Speed 18 mph    
Visibility 9 miles    
Events      
T = Trace of Precipitation, MM = Missing Value Source: NWS Daily Summary

Daily Weather History Graph

Daily Weather History Graph

Search for Another Location

Airport or City:

Trip Planner

Search our weather history database for the weather conditions in past years. The results will help you decide how hot, cold, wet, or windy it might be!

Date:

Astronomy

Dec. 05, 2012 Rise Set
Actual Time 7:02 AM CST 5:09 PM CST
Civil Twilight 6:35 AM CST 5:36 PM CST
Nautical Twilight 6:05 AM CST 6:07 PM CST
Astronomical Twilight 5:35 AM CST 6:36 PM CST
Moon 11:42 PM CST (12/5) 11:41 AM CST (12/5)
Length of Visible Light 11h 00m
Length of Day
10h 06m
Waning Gibbous, 59% of the Moon is Illuminated
Dec 5
Waning Gibbous
Dec 6
Last Quarter
Dec 13
New
Dec 19
First Quarter
Dec 28
Full

Hourly Weather History & Observations

Time (CST) Temp. Dew Point Humidity Pressure Visibility Wind Dir Wind Speed Gust Speed Precip Events Conditions
12:41 AM 60.8 °F 59.0 °F 94% 30.18 in 4.0 mi NNE 9.2 mph - 0.00 in   Light Drizzle
12:56 AM 60.1 °F 57.9 °F 93% 30.18 in 4.0 mi NNE 11.5 mph 18.4 mph 0.00 in   Light Drizzle
1:47 AM 60.8 °F 59.0 °F 94% 30.19 in 2.5 mi NNE 11.5 mph - 0.00 in   Light Drizzle
1:56 AM 60.1 °F 57.9 °F 93% 30.19 in 2.5 mi NNE 10.4 mph - 0.01 in   Light Drizzle
2:33 AM 59.0 °F 57.2 °F 94% 30.19 in 5.0 mi NNE 8.1 mph - 0.00 in   Light Drizzle
2:51 AM 59.0 °F 57.2 °F 94% 30.19 in 10.0 mi NE 10.4 mph - 0.00 in   Overcast
2:56 AM 60.1 °F 57.9 °F 93% 30.19 in 10.0 mi NE 8.1 mph - 0.00 in   Overcast
3:35 AM 59.0 °F 57.2 °F 94% 30.19 in 9.0 mi North 11.5 mph - N/A   Overcast
3:56 AM 57.9 °F 57.0 °F 97% 30.19 in 10.0 mi NNE 10.4 mph - N/A   Overcast
4:56 AM 57.0 °F 55.9 °F 96% 30.19 in 7.0 mi NNE 6.9 mph - N/A   Overcast
5:05 AM 57.2 °F 55.4 °F 94% 30.19 in 8.0 mi NE 8.1 mph - N/A   Overcast
5:21 AM 57.2 °F 53.6 °F 88% 30.19 in 10.0 mi NNE 13.8 mph - N/A   Overcast
5:41 AM 57.2 °F 53.6 °F 88% 30.20 in 10.0 mi NE 11.5 mph - N/A   Overcast
5:56 AM 55.9 °F 54.0 °F 93% 30.19 in 10.0 mi NE 12.7 mph - N/A   Overcast
6:28 AM 55.4 °F 53.6 °F 94% 30.22 in 10.0 mi NNE 8.1 mph - N/A   Overcast
6:56 AM 55.9 °F 53.1 °F 90% 30.23 in 10.0 mi NNE 10.4 mph - N/A   Overcast
8:56 AM 55.0 °F 52.0 °F 89% 30.24 in 10.0 mi North 9.2 mph - N/A   Overcast
9:15 AM 55.4 °F 51.8 °F 88% 30.24 in 10.0 mi NNE 11.5 mph - N/A   Overcast
9:56 AM 55.9 °F 52.0 °F 87% 30.23 in 10.0 mi NNE 6.9 mph - N/A   Overcast
10:56 AM 57.0 °F 52.0 °F 83% 30.22 in 10.0 mi NNE 6.9 mph - N/A   Overcast
11:45 AM 60.8 °F 53.6 °F 77% 30.20 in 10.0 mi North 6.9 mph - N/A   Overcast
11:56 AM 61.0 °F 53.1 °F 75% 30.19 in 10.0 mi NNE 5.8 mph - N/A   Overcast
12:27 PM 60.8 °F 53.6 °F 77% 30.18 in 10.0 mi NNE 5.8 mph - N/A   Overcast
12:45 PM 62.6 °F 53.6 °F 72% 30.17 in 10.0 mi NNW 8.1 mph - N/A   Overcast
12:56 PM 62.6 °F 53.6 °F 72% 30.17 in 10.0 mi North 5.8 mph - N/A   Overcast
1:23 PM 62.6 °F 53.6 °F 72% 30.15 in 10.0 mi NNE 8.1 mph - N/A   Overcast
1:56 PM 63.0 °F 53.1 °F 70% 30.13 in 10.0 mi North 5.8 mph - N/A   Mostly Cloudy
2:56 PM 63.0 °F 53.1 °F 70% 30.12 in 10.0 mi North 5.8 mph - N/A   Overcast
3:56 PM 63.0 °F 53.1 °F 70% 30.11 in 10.0 mi NNE 4.6 mph - N/A   Overcast
4:56 PM 62.1 °F 53.1 °F 72% 30.11 in 10.0 mi NNE 5.8 mph - N/A   Overcast
5:56 PM 61.0 °F 54.0 °F 78% 30.12 in 10.0 mi East 3.5 mph - N/A   Overcast
6:56 PM 60.1 °F 54.0 °F 80% 30.11 in 10.0 mi East 5.8 mph - N/A   Overcast
7:56 PM 59.0 °F 54.0 °F 83% 30.12 in 10.0 mi East 8.1 mph - N/A   Overcast
8:26 PM 59.0 °F 53.6 °F 82% 30.12 in 10.0 mi East 6.9 mph - N/A   Overcast
8:44 PM 57.2 °F 53.6 °F 88% 30.11 in 10.0 mi ESE 5.8 mph - N/A   Overcast
8:56 PM 57.9 °F 54.0 °F 87% 30.11 in 10.0 mi East 8.1 mph - N/A   Overcast
9:56 PM 57.0 °F 52.0 °F 83% 30.09 in 10.0 mi SE 8.1 mph - N/A   Overcast
10:56 PM 55.9 °F 51.1 °F 84% 30.09 in 10.0 mi East 6.9 mph - N/A   Overcast
11:56 PM 55.9 °F 52.0 °F 87% 30.08 in 7.0 mi ESE 4.6 mph - N/A   Overcast